Welcome to the New NWS' Forecast!
Most changes are behind the scenes, but click here for differences you might notice.

Regional Weather Roundup (RWR)

Issued by Gray - Portland, ME (GYX)

                            
000
ASUS41 KGYX 150010
RWRGYX
WEATHER ROUNDUP FOR MAINE AND NEW HAMPSHIRE
NATIONAL WEATHER SERVICE GRAY ME
800 PM EDT TUE AUG 14 2018

MEZ002-005-006-010-012-015-018-020-021-024-026-027-029-150100-
MAINE
  
CITY           SKY/WX    TMP DP  RH WIND       PRES   REMARKS
PORTLAND       CLOUDY    70  70 100 CALM      29.85R                  
6HR MIN TEMP:  69; 6HR MAX TEMP:  75; 6HR PCP:  0.05;                

SANFORD        FAIR      68  68 100 CALM      29.86R                  
BAR HARBOR     CLOUDY    68  66  93 CALM      29.88R                  
WISCASSET      CLOUDY    69  69 100 VRB3      29.87S                  
6HR MIN TEMP:  69; 6HR MAX TEMP:  75;                                

ROCKLAND       FOG       64  64 100 E3        29.86F VSB 3/4          
FRYEBURG       LGT RAIN  73  73 100 SE3       29.85R                  
6HR MIN TEMP:  73; 6HR MAX TEMP:  82; 6HR PCP:  0.02;                

LEWISTONAUBURN LGT RAIN  69  69 100 S6        29.86R                  
AUGUSTA        FAIR      72  69  90 S8        29.86R                  
6HR MIN TEMP:  72; 6HR MAX TEMP:  78;                                

WATERVILLE     FAIR      71  69  93 VRB3      29.83R                  
BANGOR         CLOUDY    72  69  90 S10       29.85S                  
6HR MIN TEMP:  72; 6HR MAX TEMP:  81;                                

GREENVILLE       N/A     69  69 100 CALM      29.85S                  
6HR MIN TEMP:  69; 6HR MAX TEMP:  72; 6HR PCP:  0.02;                

MILLINOCKET    FAIR      74  70  87 CALM      29.85S                  
6HR MIN TEMP:  74; 6HR MAX TEMP:  79; 6HR PCP: TRACE;                

HOULTON        FAIR      73  70  90 CALM      29.82F                  
6HR MIN TEMP:  73; 6HR MAX TEMP:  80; 6HR PCP:  0.02;                

PRESQUE ISLE   MOCLDY    74  69  85 SE5       29.83S                  
6HR MIN TEMP:  74; 6HR MAX TEMP:  83;                                

FRENCHVILLE    FAIR      76  67  73 S6        29.81F                  
6HR MIN TEMP:  76; 6HR MAX TEMP:  79;                                

CARIBOU        MOCLDY    76  69  79 S6        29.81F                  
6HR MIN TEMP:  76; 6HR MAX TEMP:  83; 6HR PCP: TRACE;                

$$

NHZ002-005-008-009-011-012-014-150100-
NEW HAMPSHIRE
  
CITY           SKY/WX    TMP DP  RH WIND       PRES   REMARKS
PORTSMOUTH     PTCLDY    69  67  95 CALM      29.83R                  
ROCHESTER      MOCLDY    70  70 100 CALM      29.85R                  
6HR MIN TEMP:  68; 6HR MAX TEMP:  82; 6HR PCP:  1.18;                

MANCHESTER     NOT AVBL                                               
CONCORD        LGT RAIN  73  70  90 E6        29.84S                  
6HR MIN TEMP:  71; 6HR MAX TEMP:  82; 6HR PCP:  0.05;                

LACONIA        FAIR      73  71  93 CALM      29.85S                  
PLYMOUTH       FAIR      71  67  87 E3        29.84R                  
BERLIN         FAIR      71  69  93 CALM      29.85R                  
6HR MIN TEMP:  71; 6HR MAX TEMP:  83;                                

WHITEFIELD     FAIR      76  67  73 CALM      29.83S                  
6HR MIN TEMP:  76; 6HR MAX TEMP:  83;                                

JAFFREY        NOT AVBL                                               
LEBANON        FAIR      74  65  73 SE5       29.82R                  
6HR MIN TEMP:  74; 6HR MAX TEMP:  82;                                

MT WASHINGTON  PTCLDY    54  53  97 SW9         N/A                   
6HR MIN TEMP:  53; 6HR MAX TEMP:  58;                                

$$

VTZ005-007-008-150100-
VERMONT
  
CITY           SKY/WX    TMP DP  RH WIND       PRES   REMARKS
ST JOHNSBURY     N/A     75  69  81 MISG      29.80R                  
MONTPELIER     FAIR      72  68  87 S5        29.87R                  
BURLINGTON     FAIR      79  64  60 S5        29.78R                  
$$

MAZ007-012-024-CTZ003-RIZ002-NYZ038-NYZ072-150100-
SOUTHERN NEW ENGLAND AND NY
  
CITY           SKY/WX    TMP DP  RH WIND       PRES   REMARKS
BOSTON         MOCLDY    74  70  87 E6        29.84R                  
WORCESTER      FAIR      70  69  97 CALM      29.87R                  
NANTUCKET      FAIR      71  71 100 S8        29.87S                  
PROVIDENCE     FAIR      75  68  78 SW14      29.85R                  
HARTFORD       MOCLDY    77  68  73 S6        29.82R THUNDER          
ALBANY         MOCLDY    76  65  68 S6        29.80R                  
NEW YORK CITY  LGT RAIN  75  68  78 SW12      29.83R                  
$$

ANZ081-ANZ082-ANZ150-NHZ014-MEZ023>029-150100-
COASTAL MARINE OBSERVATIONS
  
STATION/POSITION TIME  TEMP    WIND        PRES    WAVE
                       AIR SEA DIR/SP/G            HT/PER
                 (UTC) (F)     (DEG/KT/KT) (MB)    (FT/S)
MOUNT DESERT ROC 0000   67     160/ 11/ 11 1012.1R
MATINICUS ROCK   2300   68     170/  4/  4 1011.3F
ISLE OF SHOALS   2300   69      60/ 12/ 13 1009.6F
JEFFREYS LEDGE   2336      70                N/A     2/ 7
CASHES LEDGE BUO 2350   71 71              1011.8
$$

.............KEY..............
   WCI - WIND CHILL
   TC  - TEMPERATURE IN CELSIUS
   VSB - VISIBILITY IN MILES
   HX  - HEAT INDEX
   FAIR- INDICATES FEW OR NO CLOUDS BELOW 12,000 FT, WITH NO 
         SIGNIFICANT WEATHER AND/OR OBSTRUCTIONS TO VISIBILITY.